Location: Ravensburg
(47.7866°N, 9.6124°E)
Time: 20:43:50
(UTC+01:00)

ISS - Visible Passes

Search period start: 09 November 2025 00:00
Search period end: 19 November 2025 00:00
Orbit: 415 x 421 km, 51.6° (Epoch: 08 November)

Date Brightness Start Highest point End Pass type
(mag) Time Alt. Az. Time Alt. Az. Time Alt. Az.
12 Nov -1.4 19:00:14 10° SSW 19:01:16 17° S 19:01:16 17° S visible
13 Nov -2.0 18:12:56 10° S 18:15:18 18° SE 18:15:31 18° SE visible
13 Nov -0.4 19:48:21 10° WSW 19:48:28 11° WSW 19:48:28 11° WSW visible
14 Nov -1.4 17:26:16 10° SSE 17:27:31 12° SE 17:28:44 10° ESE visible
14 Nov -2.5 19:00:24 10° SW 19:02:36 36° SW 19:02:36 36° SW visible
15 Nov -3.1 18:12:34 10° SW 18:15:44 40° SE 18:16:38 32° ESE visible
15 Nov -0.4 19:49:10 10° W 19:49:34 13° W 19:49:34 13° W visible
16 Nov -2.4 17:24:55 10° SSW 17:27:47 27° SE 17:30:34 10° E visible
16 Nov -2.7 19:01:00 10° WSW 19:03:30 45° W 19:03:30 45° W visible
17 Nov -3.9 18:12:53 10° WSW 18:16:14 87° SSE 18:17:22 39° ENE visible
17 Nov -0.3 19:50:01 10° WNW 19:50:18 12° WNW 19:50:18 12° WNW visible
18 Nov -3.5 17:24:50 10° SW 17:28:08 60° SSE 17:31:11 12° ENE visible
18 Nov -2.3 19:01:45 10° W 19:04:06 36° NW 19:04:06 36° NW visible
